| time (UTC) | temp F | wind direction | speed MPH | gust MPH | rain 1hr in | rain 24hr in | rain mn in | humidity % | barometer mb |
| 20260510195403 | 47 | 38 | 4.0 | 9.0 | 0.00 | 0.00 | 0.00 | 65 | 1012.7 |
| 20260510194503 | 47 | 39 | 3.0 | 7.0 | 0.00 | 0.00 | 0.00 | 63 | 1012.7 |
| 20260510193603 | 48 | 32 | 5.0 | 10.0 | 0.00 | 0.00 | 0.00 | 61 | 1012.7 |
| 20260510192724 | 48 | 18 | 4.0 | 10.0 | 0.00 | 0.00 | 0.00 | 61 | 1012.8 |
| 20260510191803 | 48 | 43 | 5.0 | 11.0 | 0.00 | 0.00 | 0.00 | 60 | 1012.8 |
| 20260510190924 | 49 | 31 | 6.0 | 15.0 | 0.00 | 0.00 | 0.00 | 59 | 1012.9 |
| 20260510190003 | 49 | 34 | 5.0 | 11.0 | 0.00 | 0.00 | 0.00 | 59 | 1012.8 |
| 20260510185403 | 49 | 44 | 5.0 | 11.0 | 0.00 | 0.00 | 0.00 | 58 | 1012.8 |
| 20260510184503 | 50 | 46 | 6.0 | 15.0 | 0.00 | 0.00 | 0.00 | 58 | 1012.9 |
| 20260510183603 | 50 | 34 | 6.0 | 13.0 | 0.00 | 0.00 | 0.00 | 58 | 1012.9 |
| 20260510182703 | 50 | 52 | 5.0 | 12.0 | 0.00 | 0.00 | 0.00 | 58 | 1012.8 |
| 20260510181803 | 50 | 42 | 6.0 | 13.0 | 0.00 | 0.00 | 0.00 | 58 | 1012.9 |
| 20260510180924 | 51 | 41 | 6.0 | 15.0 | 0.00 | 0.00 | 0.00 | 57 | 1012.9 |
| 20260510180003 | 51 | 23 | 6.0 | 12.0 | 0.00 | 0.00 | 0.00 | 57 | 1012.8 |
| 20260510175403 | 51 | 26 | 6.0 | 12.0 | 0.00 | 0.00 | 0.00 | 57 | 1012.8 |
| 20260510174524 | 51 | 37 | 7.0 | 14.0 | 0.00 | 0.00 | 0.00 | 56 | 1012.9 |
| 20260510173624 | 52 | 54 | 7.0 | 15.0 | 0.00 | 0.00 | 0.00 | 55 | 1012.9 |
| 20260510172703 | 52 | 32 | 6.0 | 12.0 | 0.00 | 0.00 | 0.00 | 55 | 1013.0 |
| 20260510171803 | 52 | 19 | 6.0 | 13.0 | 0.00 | 0.00 | 0.00 | 55 | 1013.1 |
| 20260510170903 | 52 | 37 | 6.0 | 14.0 | 0.00 | 0.00 | 0.00 | 56 | 1013.1 |
| 20260510170003 | 52 | 36 | 7.0 | 14.0 | 0.00 | 0.00 | 0.00 | 56 | 1013.2 |
| 20260510165403 | 52 | 44 | 8.0 | 17.0 | 0.00 | 0.00 | 0.00 | 56 | 1013.3 |
| 20260510164503 | 53 | 42 | 5.0 | 12.0 | 0.00 | 0.00 | 0.00 | 56 | 1013.3 |
| 20260510163603 | 53 | 27 | 6.0 | 14.0 | 0.00 | 0.00 | 0.00 | 56 | 1013.5 |
| 20260510162703 | 53 | 42 | 7.0 | 15.0 | 0.00 | 0.00 | 0.00 | 54 | 1013.6 |
| 20260510161803 | 54 | 40 | 7.0 | 16.0 | 0.00 | 0.00 | 0.00 | 54 | 1013.5 |
| 20260510160903 | 54 | 34 | 7.0 | 15.0 | 0.00 | 0.00 | 0.00 | 54 | 1013.7 |